RYR5805 EPMO-ESMS

Flight info

Callsign RYR5805
Flight time 0h 59m
Altitude 32000
Route OLILA L621 GRUDA/N0355F240 L621 MALOX/N0426F360 L621 ROE
Aircraft B738/M-SDE2E3FGHIRWXY/LB1

Departure

Time 2026-04-22 18:35
Airport Warsaw Modlin Airport (EPMO)

Arrival

Time 2026-04-22 19:35
Airport Malmö Sturup Airport (ESMS)
Time Latitude Longitude Altitude Speed Heading
2026-04-22 18:11 52.44736 20.65178 334 ft 0 kts 206°
2026-04-22 18:27 52.44739 20.65180 337 ft 3 kts 207°
2026-04-22 18:27 52.44759 20.65203 332 ft 4 kts 197°
2026-04-22 18:27 52.44778 20.65203 333 ft 4 kts 145°
2026-04-22 18:28 52.44784 20.65183 334 ft 2 kts 81°
2026-04-22 18:28 52.44782 20.65157 333 ft 0 kts 81°
2026-04-22 18:30 52.44782 20.65158 333 ft 0 kts 81°
2026-04-22 18:30 52.44784 20.65179 334 ft 4 kts 81°
2026-04-22 18:31 52.44791 20.65254 336 ft 9 kts 81°
2026-04-22 18:31 52.44804 20.65399 337 ft 18 kts 81°
2026-04-22 18:31 52.44822 20.65597 335 ft 18 kts 81°
2026-04-22 18:31 52.44841 20.65808 336 ft 19 kts 82°
2026-04-22 18:32 52.44861 20.66023 337 ft 19 kts 80°
2026-04-22 18:32 52.44882 20.66231 333 ft 18 kts 82°
2026-04-22 18:32 52.44900 20.66433 336 ft 18 kts 81°
2026-04-22 18:32 52.44918 20.66628 337 ft 17 kts 81°
2026-04-22 18:33 52.44936 20.66833 337 ft 20 kts 81°
2026-04-22 18:33 52.44949 20.66969 336 ft 7 kts 81°
2026-04-22 18:33 52.44971 20.67062 334 ft 10 kts 41°
2026-04-22 18:33 52.45046 20.67068 335 ft 13 kts 352°
2026-04-22 18:34 52.45149 20.67047 335 ft 18 kts 350°
2026-04-22 18:34 52.45279 20.66945 335 ft 24 kts 294°
2026-04-22 18:34 52.45249 20.66543 334 ft 64 kts 261°
2026-04-22 18:34 52.45143 20.65400 338 ft 136 kts 261°
2026-04-22 18:35 52.44986 20.63670 756 ft 160 kts 262°
2026-04-22 18:35 52.44809 20.61806 1531 ft 169 kts 264°
2026-04-22 18:35 52.44636 20.59812 2136 ft 191 kts 266°
2026-04-22 18:35 52.44463 20.57565 2676 ft 202 kts 267°
2026-04-22 18:36 52.44280 20.55262 3342 ft 206 kts 268°
2026-04-22 18:36 52.44492 20.52888 3703 ft 216 kts 304°
2026-04-22 18:36 52.45678 20.51304 4031 ft 235 kts 338°
2026-04-22 18:36 52.47251 20.50390 4768 ft 243 kts 338°
2026-04-22 18:37 52.48821 20.49397 5798 ft 242 kts 336°
2026-04-22 18:37 52.50384 20.48340 6742 ft 245 kts 335°
2026-04-22 18:37 52.51444 20.47590 7300 ft 248 kts 335°
2026-04-22 18:37 52.53562 20.46034 8453 ft 254 kts 336°
2026-04-22 18:38 52.55198 20.44795 9341 ft 259 kts 336°
2026-04-22 18:38 52.56840 20.43529 10175 ft 263 kts 337°
2026-04-22 18:38 52.58545 20.42203 10572 ft 284 kts 337°
2026-04-22 18:39 52.62311 20.39238 11729 ft 307 kts 336°
2026-04-22 18:39 52.64242 20.37705 12595 ft 310 kts 336°
2026-04-22 18:39 52.66189 20.36158 13445 ft 314 kts 337°
2026-04-22 18:39 52.68174 20.34579 14266 ft 318 kts 337°
2026-04-22 18:40 52.70102 20.32730 15076 ft 324 kts 328°
2026-04-22 18:40 52.71834 20.30300 15910 ft 331 kts 318°
2026-04-22 18:40 52.73402 20.27467 16733 ft 336 kts 316°
2026-04-22 18:40 52.74939 20.24599 17522 ft 340 kts 316°
2026-04-22 18:41 52.76515 20.21662 18352 ft 343 kts 316°
2026-04-22 18:41 52.78112 20.18712 19073 ft 346 kts 316°
2026-04-22 18:41 52.79752 20.15698 19735 ft 351 kts 316°
2026-04-22 18:41 52.81395 20.12671 20391 ft 356 kts 315°
2026-04-22 18:42 52.83015 20.09539 21052 ft 361 kts 314°
2026-04-22 18:42 52.84631 20.06327 21709 ft 365 kts 314°
2026-04-22 18:42 52.85705 20.04175 22133 ft 368 kts 314°
2026-04-22 18:42 52.87345 20.00889 22761 ft 372 kts 314°
2026-04-22 18:43 52.89003 19.97573 23382 ft 377 kts 314°
2026-04-22 18:43 52.90661 19.94258 23925 ft 381 kts 314°
2026-04-22 18:43 52.92388 19.90812 24397 ft 386 kts 314°
2026-04-22 18:43 52.94112 19.87370 24856 ft 391 kts 314°
2026-04-22 18:44 52.95858 19.83880 25327 ft 395 kts 315°
2026-04-22 18:44 52.97619 19.80354 25790 ft 400 kts 315°
2026-04-22 18:44 52.99402 19.76781 26239 ft 404 kts 315°
2026-04-22 18:44 53.01203 19.73166 26679 ft 408 kts 315°
2026-04-22 18:45 53.03024 19.69507 27105 ft 413 kts 315°
2026-04-22 18:45 53.04861 19.65810 27495 ft 418 kts 315°
2026-04-22 18:45 53.06747 19.62103 27879 ft 421 kts 318°
2026-04-22 18:45 53.08758 19.58566 28287 ft 423 kts 321°
2026-04-22 18:46 53.10840 19.55085 28702 ft 426 kts 321°
2026-04-22 18:46 53.12945 19.51594 29125 ft 429 kts 321°
2026-04-22 18:46 53.15061 19.48051 29527 ft 433 kts 321°
2026-04-22 18:46 53.17172 19.44473 30068 ft 433 kts 321°
2026-04-22 18:47 53.19272 19.40884 30565 ft 432 kts 321°
2026-04-22 18:47 53.21366 19.37295 31064 ft 431 kts 322°
2026-04-22 18:47 53.23436 19.33695 31556 ft 431 kts 320°
2026-04-22 18:47 53.25442 19.29962 32022 ft 432 kts 319°
2026-04-22 18:48 53.27408 19.26161 32399 ft 433 kts 319°
2026-04-22 18:48 53.29369 19.22330 32790 ft 434 kts 319°
2026-04-22 18:48 53.31328 19.18501 33279 ft 433 kts 319°
2026-04-22 18:48 53.33282 19.14693 33781 ft 430 kts 320°
2026-04-22 18:49 53.35238 19.10896 34217 ft 430 kts 320°
2026-04-22 18:49 53.37193 19.07111 34543 ft 430 kts 320°
2026-04-22 18:49 53.39154 19.03317 34851 ft 431 kts 319°
2026-04-22 18:49 53.41117 18.99514 35206 ft 431 kts 319°
2026-04-22 18:50 53.43078 18.95706 35560 ft 431 kts 319°
2026-04-22 18:50 53.45031 18.91904 35892 ft 431 kts 319°
2026-04-22 18:50 53.46991 18.88088 36108 ft 434 kts 318°
2026-04-22 18:50 53.48977 18.84220 36099 ft 440 kts 318°
2026-04-22 18:51 53.52914 18.76313 36093 ft 442 kts 313°
2026-04-22 18:51 53.56319 18.67807 36103 ft 437 kts 310°
2026-04-22 18:52 53.59610 18.59190 36109 ft 438 kts 310°
2026-04-22 18:52 53.62933 18.50569 36117 ft 439 kts 310°
2026-04-22 18:53 53.66287 18.41940 36101 ft 440 kts 310°
2026-04-22 18:53 53.69648 18.33296 36120 ft 441 kts 310°
2026-04-22 18:54 53.73016 18.24609 36121 ft 442 kts 310°
2026-04-22 18:54 53.76380 18.15899 36123 ft 443 kts 310°
2026-04-22 18:55 53.79738 18.07171 36119 ft 443 kts 310°
2026-04-22 18:55 53.83087 17.98434 36130 ft 442 kts 310°
2026-04-22 18:56 53.86430 17.89687 36126 ft 442 kts 309°
2026-04-22 18:56 53.89766 17.80927 36131 ft 442 kts 309°
2026-04-22 18:57 53.93093 17.72159 36129 ft 442 kts 309°
2026-04-22 18:57 53.96420 17.63360 36118 ft 442 kts 309°
2026-04-22 18:58 53.99732 17.54569 36125 ft 441 kts 309°
2026-04-22 18:58 54.03036 17.45771 36137 ft 441 kts 309°
2026-04-22 18:59 54.06333 17.36958 36140 ft 441 kts 309°
2026-04-22 18:59 54.09619 17.28143 36142 ft 442 kts 309°
2026-04-22 19:00 54.12908 17.19294 36145 ft 442 kts 309°
2026-04-22 19:00 54.16186 17.10435 36140 ft 441 kts 309°
2026-04-22 19:01 54.19455 17.01569 36145 ft 442 kts 309°
2026-04-22 19:01 54.22730 16.92664 36066 ft 444 kts 309°
2026-04-22 19:02 54.24382 16.88179 35594 ft 446 kts 310°
2026-04-22 19:02 54.26134 16.83864 35196 ft 438 kts 313°
2026-04-22 19:02 54.27939 16.79711 34821 ft 433 kts 314°
2026-04-22 19:02 54.29757 16.75633 34439 ft 429 kts 315°
2026-04-22 19:03 54.31567 16.71585 33999 ft 426 kts 314°
2026-04-22 19:03 54.33357 16.67556 33578 ft 423 kts 314°
2026-04-22 19:03 54.35123 16.63550 33180 ft 419 kts 314°
2026-04-22 19:03 54.36866 16.59568 32796 ft 416 kts 314°
2026-04-22 19:04 54.38588 16.55614 32408 ft 412 kts 314°
2026-04-22 19:04 54.40291 16.51689 32059 ft 408 kts 314°
2026-04-22 19:04 54.41977 16.47793 31681 ft 405 kts 314°
2026-04-22 19:04 54.43650 16.43924 31320 ft 402 kts 314°
2026-04-22 19:05 54.45308 16.40081 30958 ft 399 kts 314°
2026-04-22 19:05 54.46952 16.36267 30590 ft 396 kts 314°
2026-04-22 19:05 54.48586 16.32469 30232 ft 393 kts 313°
2026-04-22 19:05 54.50206 16.28700 29823 ft 390 kts 313°
2026-04-22 19:06 54.51809 16.24962 29429 ft 386 kts 313°
2026-04-22 19:06 54.53389 16.21271 29078 ft 381 kts 313°
2026-04-22 19:06 54.54954 16.17612 28713 ft 377 kts 313°
2026-04-22 19:07 54.58038 16.10389 27989 ft 371 kts 313°
2026-04-22 19:07 54.59555 16.06826 27622 ft 367 kts 313°
2026-04-22 19:07 54.61062 16.03285 27265 ft 364 kts 313°
2026-04-22 19:07 54.62553 15.99775 26904 ft 362 kts 313°
2026-04-22 19:08 54.64032 15.96287 26557 ft 359 kts 312°
2026-04-22 19:08 54.65500 15.92822 26211 ft 356 kts 312°
2026-04-22 19:08 54.66955 15.89381 25869 ft 353 kts 312°
2026-04-22 19:08 54.68399 15.85963 25527 ft 351 kts 312°
2026-04-22 19:09 54.69835 15.82562 25185 ft 349 kts 312°
2026-04-22 19:09 54.71256 15.79189 24850 ft 346 kts 312°
2026-04-22 19:09 54.72194 15.76958 24623 ft 345 kts 311°
2026-04-22 19:09 54.74069 15.72481 24247 ft 342 kts 311°
2026-04-22 19:10 54.75449 15.69154 24023 ft 340 kts 311°
2026-04-22 19:10 54.76839 15.65798 23806 ft 345 kts 311°
2026-04-22 19:10 54.78245 15.62397 23545 ft 348 kts 311°
2026-04-22 19:10 54.79651 15.58989 23272 ft 346 kts 311°
2026-04-22 19:11 54.81040 15.55612 23015 ft 342 kts 311°
2026-04-22 19:11 54.82410 15.52279 22744 ft 336 kts 311°
2026-04-22 19:11 54.83759 15.48995 22410 ft 333 kts 311°
2026-04-22 19:11 54.85094 15.45743 22067 ft 329 kts 310°
2026-04-22 19:12 54.86417 15.42520 21740 ft 326 kts 310°
2026-04-22 19:12 54.87725 15.39330 21395 ft 323 kts 310°
2026-04-22 19:12 54.89022 15.36161 21062 ft 320 kts 310°
2026-04-22 19:12 54.90305 15.33021 20732 ft 317 kts 310°
2026-04-22 19:13 54.91572 15.29892 20406 ft 316 kts 308°
2026-04-22 19:13 54.92664 15.26579 20149 ft 316 kts 302°
2026-04-22 19:13 54.93624 15.23154 19904 ft 315 kts 300°
2026-04-22 19:13 54.94556 15.19701 19664 ft 314 kts 300°
2026-04-22 19:14 54.95480 15.16279 19436 ft 311 kts 300°
2026-04-22 19:14 54.96400 15.12896 19149 ft 308 kts 300°
2026-04-22 19:14 54.97318 15.09551 18836 ft 305 kts 300°
2026-04-22 19:14 54.98234 15.06230 18531 ft 303 kts 300°
2026-04-22 19:15 54.98837 15.04048 18291 ft 302 kts 300°
2026-04-22 19:15 55.00051 14.99661 17833 ft 299 kts 300°
2026-04-22 19:15 55.00935 14.96464 17524 ft 296 kts 300°
2026-04-22 19:15 55.01823 14.93250 17213 ft 293 kts 301°
2026-04-22 19:16 55.02713 14.90028 16872 ft 290 kts 300°
2026-04-22 19:16 55.03585 14.86867 16561 ft 288 kts 300°
2026-04-22 19:16 55.04451 14.83726 16248 ft 286 kts 300°
2026-04-22 19:16 55.05308 14.80610 15941 ft 284 kts 300°
2026-04-22 19:17 55.06159 14.77511 15637 ft 282 kts 300°
2026-04-22 19:17 55.06957 14.74396 15405 ft 280 kts 296°
2026-04-22 19:17 55.07609 14.71223 15169 ft 277 kts 294°
2026-04-22 19:17 55.08220 14.68047 14880 ft 275 kts 294°
2026-04-22 19:18 55.08823 14.64882 14586 ft 274 kts 294°
2026-04-22 19:18 55.09426 14.61730 14288 ft 273 kts 294°
2026-04-22 19:18 55.10028 14.58598 14004 ft 272 kts 294°
2026-04-22 19:18 55.10632 14.55474 13683 ft 271 kts 294°
2026-04-22 19:19 55.11234 14.52365 13369 ft 270 kts 294°
2026-04-22 19:19 55.11834 14.49272 13067 ft 268 kts 294°
2026-04-22 19:19 55.12430 14.46200 12770 ft 266 kts 294°
2026-04-22 19:19 55.13022 14.43146 12479 ft 264 kts 294°
2026-04-22 19:20 55.13610 14.40113 12162 ft 263 kts 294°
2026-04-22 19:20 55.14193 14.37102 11912 ft 260 kts 294°
2026-04-22 19:20 55.14771 14.34112 11629 ft 259 kts 294°
2026-04-22 19:20 55.15345 14.31144 11339 ft 257 kts 294°
2026-04-22 19:21 55.15917 14.28181 11056 ft 256 kts 294°
2026-04-22 19:21 55.16484 14.25239 10779 ft 255 kts 294°
2026-04-22 19:21 55.17048 14.22303 10504 ft 254 kts 294°
2026-04-22 19:21 55.17609 14.19386 10306 ft 250 kts 294°
2026-04-22 19:22 55.18152 14.16547 10158 ft 246 kts 294°
2026-04-22 19:22 55.18704 14.13674 9867 ft 252 kts 294°
2026-04-22 19:22 55.19270 14.10729 9583 ft 258 kts 294°
2026-04-22 19:22 55.19656 14.08716 9381 ft 258 kts 294°
2026-04-22 19:23 55.20222 14.05744 9093 ft 256 kts 294°
2026-04-22 19:23 55.20780 14.02808 8815 ft 253 kts 294°
2026-04-22 19:23 55.21333 13.99894 8530 ft 251 kts 294°
2026-04-22 19:23 55.21881 13.97005 8266 ft 249 kts 293°
2026-04-22 19:24 55.22425 13.94137 7999 ft 247 kts 293°
2026-04-22 19:24 55.22964 13.91292 7730 ft 245 kts 293°
2026-04-22 19:24 55.23498 13.88472 7443 ft 243 kts 293°
2026-04-22 19:24 55.24028 13.85666 7186 ft 242 kts 293°
2026-04-22 19:25 55.24553 13.82876 6931 ft 240 kts 292°
2026-04-22 19:25 55.25068 13.80139 6679 ft 239 kts 292°
2026-04-22 19:25 55.25593 13.77347 6411 ft 238 kts 292°
2026-04-22 19:25 55.26103 13.74636 6146 ft 236 kts 292°
2026-04-22 19:26 55.26615 13.71909 5886 ft 234 kts 292°
2026-04-22 19:26 55.27127 13.69175 5642 ft 232 kts 292°
2026-04-22 19:26 55.27632 13.66483 5319 ft 233 kts 292°
2026-04-22 19:26 55.28144 13.63751 4972 ft 236 kts 292°
2026-04-22 19:27 55.28647 13.61056 4830 ft 229 kts 292°
2026-04-22 19:27 55.29134 13.58440 4707 ft 221 kts 293°
2026-04-22 19:27 55.29602 13.55922 4621 ft 213 kts 293°
2026-04-22 19:27 55.30052 13.53496 4532 ft 205 kts 293°
2026-04-22 19:28 55.30484 13.51166 4444 ft 197 kts 293°
2026-04-22 19:28 55.30892 13.48958 4369 ft 188 kts 294°
2026-04-22 19:28 55.31515 13.47039 4285 ft 179 kts 319°
2026-04-22 19:28 55.32509 13.45686 4077 ft 183 kts 324°
2026-04-22 19:29 55.33527 13.44348 3857 ft 183 kts 324°
2026-04-22 19:29 55.34541 13.43017 3635 ft 180 kts 324°
2026-04-22 19:29 55.35512 13.41744 3431 ft 168 kts 326°
2026-04-22 19:29 55.36574 13.41139 3213 ft 158 kts 352°
2026-04-22 19:30 55.37293 13.41023 3091 ft 150 kts 349°
2026-04-22 19:30 55.38620 13.40738 2847 ft 140 kts 348°
2026-04-22 19:30 55.39571 13.40537 2668 ft 138 kts 348°
2026-04-22 19:30 55.40525 13.40336 2535 ft 139 kts 347°
2026-04-22 19:31 55.41499 13.40119 2380 ft 142 kts 348°
2026-04-22 19:31 55.42470 13.39918 2205 ft 131 kts 348°
2026-04-22 19:31 55.43341 13.39740 2021 ft 121 kts 348°
2026-04-22 19:31 55.44165 13.39571 1854 ft 117 kts 348°
2026-04-22 19:32 55.44979 13.39401 1706 ft 119 kts 348°
2026-04-22 19:32 55.45807 13.39230 1545 ft 121 kts 348°
2026-04-22 19:32 55.46635 13.39060 1390 ft 119 kts 349°
2026-04-22 19:32 55.47452 13.38897 1209 ft 120 kts 349°
2026-04-22 19:33 55.48295 13.38729 1019 ft 121 kts 349°
2026-04-22 19:33 55.49132 13.38556 820 ft 126 kts 349°
2026-04-22 19:33 55.50017 13.38353 678 ft 132 kts 349°
2026-04-22 19:33 55.50955 13.38152 508 ft 134 kts 351°
2026-04-22 19:34 55.51843 13.37983 329 ft 127 kts 351°
2026-04-22 19:34 55.52712 13.37802 249 ft 120 kts 350°
2026-04-22 19:34 55.53455 13.37650 237 ft 91 kts 353°
2026-04-22 19:34 55.53965 13.37550 240 ft 56 kts 353°
2026-04-22 19:35 55.54209 13.37482 238 ft 17 kts 322°
2026-04-22 19:35 55.54222 13.37354 236 ft 7 kts 259°
2026-04-22 19:35 55.54211 13.37256 231 ft 9 kts 259°
2026-04-22 19:35 55.54201 13.37144 230 ft 9 kts 256°
2026-04-22 19:36 55.54180 13.37032 232 ft 10 kts 257°
2026-04-22 19:36 55.54170 13.36897 230 ft 9 kts 263°
2026-04-22 19:36 55.54163 13.36803 230 ft 5 kts 262°
2026-04-22 19:36 55.54136 13.36763 230 ft 6 kts 190°
2026-04-22 19:37 55.54105 13.36764 232 ft 4 kts 175°
2026-04-22 19:37 55.54101 13.36765 232 ft 1 kts 174°
2026-04-22 19:37 55.54096 13.36766 231 ft 0 kts 174°